[[[{"header":{"parameterUnit":"kt","parameterCategory":2,"dx":1,"dy":1,"la1":30.253999710083008,"la2":30.299108505249023,"lo1":-89.0895004272461,"lo2":-89.04439544677734,"nx":28,"ny":28,"refTime":"2022-09-24T21:00:00:Z","depth":0,"parameterNumber":1,"parameterNumberName":"U-component_of_WINDS"},"data":[-1.6793,-1.6725,-1.6673,-1.6572,-1.6508,-1.643,-1.6385,-1.6322,-1.6257,-1.6157,-1.6091,-1.603,-1.5944,-1.5851,-1.5775,-1.5749,-1.5721,-1.5737,-1.5704,-1.5681,-1.5674,-1.5668,-1.5681,-1.5732,-1.5732,-1.5736,-1.5737,-1.5737,-1.6788,-1.6724,-1.6655,-1.6552,-1.6492,-1.6446,-1.636,-1.6313,-1.6243,-1.6163,-1.6093,-1.5999,-1.5918,-1.5823,-1.5736,-1.5703,-1.5676,-1.5683,-1.5685,-1.5673,-1.5646,-1.566,-1.5708,-1.5708,-1.5708,-1.5708,-1.5708,-1.5708,-1.6765,-1.6725,-1.6632,-1.6555,-1.6488,-1.6419,-1.6372,-1.6298,-1.6228,-1.613,-1.6078,-1.5998,-1.5905,-1.5771,-1.5712,-1.5647,-1.5628,-1.5619,-1.5617,-1.5616,-1.5625,-1.5631,-1.5629,-1.5629,-1.5628,-1.5628,-1.5628,0,-1.6731,-1.669,-1.6618,-1.6532,-1.6472,-1.6398,-1.6322,-1.6291,-1.6181,-1.6127,-1.6045,-1.5988,-1.5875,-1.579,-1.5694,-1.5633,-1.5577,-1.5564,-1.5558,-1.5583,-1.562,-1.5602,-1.5563,-1.5564,-1.5563,-1.5562,-1.5562,-1.5562,-1.6706,-1.6664,-1.6539,-1.6496,-1.644,-1.637,-1.6318,-1.6223,-1.6172,-1.6062,-1.6031,-1.5944,-1.587,-1.5745,-1.5654,-1.5569,-1.554,-1.5547,-1.5526,-1.5554,-1.5542,-1.5546,-1.5543,-1.5553,-1.5554,-1.5555,-1.5556,0,-1.6697,-1.6608,-1.6526,-1.6403,-1.6371,-1.6333,-1.6228,-1.6183,-1.6113,-1.6041,-1.6019,-1.5909,-1.5828,-1.5735,-1.5621,-1.5576,-1.5513,-1.5486,-1.5546,-1.5536,-1.5535,-1.5537,-1.554,-1.5537,-1.5481,-1.5482,-1.5482,0,-1.664,-1.6588,-1.6458,-1.6415,-1.6355,-1.626,-1.6203,-1.6137,-1.6053,-1.5996,-1.5917,-1.5865,-1.5753,-1.5687,-1.5618,-1.5549,-1.5527,-1.5488,-1.5471,-1.5496,-1.5501,-1.5466,-1.5464,-1.543,-1.543,-1.543,-1.543,0,-1.6636,-1.6503,-1.6433,-1.6388,-1.6249,-1.6218,-1.6159,-1.6063,-1.6011,-1.5929,-1.5894,-1.5804,-1.5754,-1.5686,-1.5599,-1.5589,-1.5512,-1.5479,-1.5472,-1.5474,-1.5459,-1.5461,-1.5488,-1.543,-1.543,-1.543,-1.543,0,-1.6575,-1.6494,-1.6404,-1.6287,-1.6256,-1.6208,-1.6113,-1.605,-1.5955,-1.5908,-1.5841,-1.5776,-1.5706,-1.5682,-1.5585,-1.5597,-1.5553,-1.5508,-1.5506,-1.5493,-1.5469,-1.5498,-1.5532,-1.5533,-1.5484,-1.5485,-1.5485,0,-1.6597,-1.648,-1.6396,-1.6311,-1.6244,-1.616,-1.6105,-1.6022,-1.5955,-1.5888,-1.5813,-1.5736,-1.5697,-1.566,-1.5624,-1.5543,-1.5528,-1.5542,-1.5448,-1.5445,-1.5478,-1.5508,-1.5537,-1.5535,-1.5489,-1.5489,-1.5488,0,-1.6601,-1.6431,-1.6422,-1.6367,-1.624,-1.6182,-1.6118,-1.6021,-1.5981,-1.5894,-1.5839,-1.5726,-1.5694,-1.5631,-1.5567,-1.5535,-1.5536,-1.5503,-1.5499,-1.5514,-1.5482,-1.5511,-1.5511,-1.55,-1.5499,-1.5499,-1.5492,0,-1.6533,-1.6461,-1.6431,-1.6309,-1.6249,-1.6188,-1.6087,-1.6038,-1.5983,-1.5913,-1.5827,-1.573,-1.5628,-1.5602,-1.5546,-1.5501,-1.5493,-1.5458,-1.5426,-1.5446,-1.5441,-1.5439,-1.5442,-1.544,-1.5439,-1.5438,0,0,-1.6576,-1.647,-1.6378,-1.6311,-1.6255,-1.6166,-1.6111,-1.6045,-1.5914,-1.5877,-1.5859,-1.5687,-1.5608,-1.5514,-1.5512,-1.547,-1.5453,-1.5448,-1.5437,-1.5437,-1.5437,-1.5434,-1.5433,-1.5436,-1.5435,-1.5435,-1.5434,0,-1.653,-1.6453,-1.6399,-1.6327,-1.6217,-1.6144,-1.6132,-1.6006,-1.5957,-1.5871,-1.5798,-1.5733,-1.5596,-1.5523,-1.5468,-1.5458,-1.5405,-1.5434,-1.5464,-1.5427,-1.5429,-1.5431,-1.5429,-1.5429,-1.5431,-1.5431,-1.5431,0,-1.6517,-1.6425,-1.6388,-1.6253,-1.6179,-1.6111,-1.6054,-1.5982,-1.593,-1.5832,-1.5748,-1.5679,-1.5572,-1.5495,-1.5457,-1.5438,-1.5367,-1.5369,-1.5375,-1.5368,-1.5327,-1.533,-1.5332,-1.5302,-1.5302,-1.5302,0,0,-1.6491,-1.6422,-1.6291,-1.6235,-1.6195,-1.6084,-1.6036,-1.5975,-1.5881,-1.5844,-1.5754,-1.5664,-1.5583,-1.5532,-1.545,-1.538,-1.535,-1.5358,-1.5364,-1.5369,-1.5366,-1.5327,-1.5329,-1.5302,-1.5302,-1.5302,0,0,-1.6477,-1.6324,-1.6285,-1.6208,-1.6122,-1.5987,-1.5957,-1.5905,-1.5821,-1.5816,-1.5708,-1.5679,-1.5605,-1.554,-1.5552,-1.5437,-1.5407,-1.5402,-1.5482,-1.5488,-1.5494,-1.5511,-1.5477,0,0,0,0,0,-1.6377,-1.6343,-1.631,-1.6281,-1.6109,-1.6007,-1.5984,-1.5895,-1.5877,-1.5856,-1.5773,-1.5718,-1.5525,-1.5533,-1.5505,-1.5493,-1.5301,-1.5301,-1.5301,-1.5387,-1.5395,-1.5401,0,0,0,0,0,0,-1.6365,-1.6331,-1.631,-1.6177,-1.6137,-1.6007,-1.5958,-1.5932,-1.5877,-1.5868,-1.5736,-1.5713,-1.5634,-1.554,-1.5517,-1.5507,-1.5485,-1.5301,-1.5301,-1.5301,-1.539,-1.5396,-1.5401,0,0,0,0,0,-1.6355,-1.6327,-1.6074,-1.6176,-1.6142,-1.6016,-1.5958,-1.5937,-1.5892,-1.5762,-1.5738,-1.583,-1.5636,-1.561,-1.5526,-1.552,-1.55,-1.5492,-1.5301,-1.5301,-1.5301,-1.5393,0,0,0,0,0,0,-1.6348,-1.6306,-1.6065,-1.6051,-1.6182,-1.6021,-1.5993,-1.5941,-1.5787,-1.5764,-1.5851,-1.5846,-1.5638,-1.5617,-1.5598,-1.553,-1.5513,-1.5504,-1.5499,-1.5301,-1.5301,-1.5301,0,0,0,0,0,0,-1.6321,-1.6295,-1.6058,-1.607,-1.6057,-1.6027,-1.6001,-1.5915,-1.5787,-1.5885,-1.5876,-1.5851,-1.5666,-1.5622,-1.5606,-1.5475,-1.5522,-1.5514,-1.5509,-1.5505,-1.5301,-1.5301,0,0,0,0,0,0,-1.6308,-1.6286,-1.6073,-1.6063,-1.6051,-1.5888,-1.5948,-1.5776,-1.5799,-1.5893,-1.5798,-1.5798,-1.5672,-1.5654,-1.5613,-1.5489,-1.5479,-1.5522,-1.5517,-1.5513,-1.551,0,0,0,0,0,0,0,-1.6298,-1.6466,-1.6148,-1.6057,-1.6046,-1.5923,-1.5919,-1.5916,-1.5799,-1.5799,-1.5799,-1.5798,-1.5569,-1.556,-1.5551,-1.55,0,0,-1.5523,-1.5519,0,0,0,0,0,0,0,0,-1.6473,-1.6468,-1.6147,-1.6144,-1.6142,-1.5923,-1.592,-1.5916,-1.5799,-1.5799,-1.5799,-1.5798,-1.5566,-1.5559,-1.5552,0,0,0,0,0,0,0,0,0,0,0,0,0,0,0,-1.6147,-1.6145,0,-1.5922,-1.592,-1.5917,-1.5799,-1.5799,-1.5799,-1.5798,-1.5564,-1.5558,-1.5552,0,0,0,0,0,0,0,0,0,0,0,0,0,0,0,0,0,0,0,0,0,0,0,0,0,0,0,0,0,0,0,0,0,0,0,0,0,0,0,0,0,0,0,0,0,0,0,0,0,0,0,0,0,0,0,0,0,0,0,0,0,0,0,0,0,0,0,0,0]}],[{"header":{"parameterUnit":"kt","parameterCategory":2,"dx":1,"dy":1,"la1":30.253999710083008,"la2":30.299108505249023,"lo1":-89.0895004272461,"lo2":-89.04439544677734,"nx":28,"ny":28,"refTime":"2022-09-24T21:00:00:Z","depth":0,"parameterNumber":2,"parameterNumberName":"V-component_of_WINDS"},"data":[2.9527,2.9563,2.9542,2.9572,2.9558,2.9574,2.9572,2.9568,2.9559,2.9573,2.9577,2.9559,2.954,2.9538,2.9539,2.953,2.9529,2.9555,2.9539,2.9445,2.943,2.9416,2.9405,2.9557,2.9558,2.9637,2.9637,2.9638,2.945,2.9438,2.945,2.9447,2.9455,2.9416,2.941,2.9419,2.9434,2.9425,2.9429,2.944,2.9445,2.9418,2.9418,2.943,2.941,2.9431,2.9426,2.9422,2.9323,2.9311,2.9446,2.9446,2.9446,2.9446,2.9446,2.9446,2.9304,2.9328,2.9315,2.9327,2.9321,2.9319,2.9337,2.9315,2.9326,2.9327,2.9302,2.9318,2.9303,2.9296,2.9288,2.9297,2.927,2.9285,2.9288,2.929,2.9294,2.9169,2.9298,2.9298,2.9297,2.9297,2.9296,0,2.9189,2.917,2.9182,2.9186,2.9195,2.9197,2.9195,2.9207,2.916,2.9171,2.9184,2.9188,2.9195,2.9202,2.92,2.9189,2.9146,2.9143,2.9152,2.9159,2.9165,2.9154,2.8985,2.9138,2.9137,2.9135,2.9135,2.9134,2.9032,2.9067,2.9045,2.9055,2.905,2.907,2.9076,2.9033,2.9042,2.9033,2.9055,2.9065,2.907,2.9094,2.9067,2.9072,2.905,2.9109,2.905,2.9056,2.904,2.9036,2.9035,2.9119,2.9121,2.9122,2.9124,0,2.8944,2.8913,2.8959,2.8936,2.8931,2.8967,2.8945,2.8968,2.8946,2.8974,2.8978,2.8942,2.8956,2.892,2.893,2.8909,2.8959,2.8942,2.896,2.8952,2.8995,2.8989,2.9159,2.9175,2.9025,2.9026,2.9028,0,2.8794,2.8842,2.8791,2.882,2.887,2.8827,2.8876,2.8862,2.8852,2.8874,2.8824,2.8845,2.8797,2.8811,2.8782,2.8818,2.8823,2.8806,2.8796,2.8807,2.8807,2.8805,2.8794,2.8785,2.8784,2.8783,2.8782,0,2.8653,2.8687,2.8735,2.8737,2.8718,2.8741,2.8734,2.8724,2.8731,2.8736,2.8739,2.8749,2.8753,2.8759,2.8721,2.8681,2.8767,2.8705,2.8749,2.8749,2.8765,2.8763,2.8928,2.8781,2.8781,2.8781,2.878,0,2.8526,2.8535,2.8613,2.8593,2.8603,2.8638,2.8642,2.8664,2.8657,2.8641,2.8645,2.8606,2.8642,2.858,2.8625,2.8582,2.8588,2.8577,2.858,2.8575,2.8506,2.8594,2.8762,2.8773,2.8576,2.8575,2.8573,0,2.8367,2.8441,2.8404,2.8481,2.8509,2.8447,2.8483,2.8481,2.8463,2.8482,2.8462,2.8485,2.8434,2.8435,2.8463,2.8442,2.8497,2.8435,2.8452,2.8453,2.8447,2.8603,2.8633,2.873,2.8551,2.8554,2.8555,0,2.824,2.8221,2.8238,2.8236,2.8229,2.8255,2.8299,2.8313,2.8326,2.8334,2.8364,2.8401,2.8359,2.8366,2.8336,2.8367,2.8458,2.8319,2.8318,2.8338,2.8541,2.8567,2.8584,2.843,2.8433,2.8435,2.8538,0,2.8037,2.8074,2.8121,2.8127,2.8143,2.8193,2.8157,2.8177,2.8146,2.8126,2.8176,2.8169,2.8184,2.8198,2.817,2.8255,2.8233,2.8192,2.8125,2.8231,2.8263,2.8277,2.808,2.8077,2.8076,2.8074,0,0,2.7889,2.7941,2.7903,2.7946,2.7955,2.7892,2.7947,2.795,2.7958,2.7964,2.7928,2.7978,2.7975,2.8038,2.8068,2.8079,2.8087,2.8054,2.8183,2.8195,2.8207,2.8242,2.8257,2.8071,2.807,2.807,2.8069,0,2.7806,2.7809,2.7867,2.7868,2.7869,2.7847,2.7861,2.7851,2.7841,2.7895,2.7839,2.7866,2.7913,2.7911,2.7917,2.8047,2.8001,2.8056,2.8133,2.8167,2.8181,2.8194,2.8232,2.8247,2.8065,2.8065,2.8065,0,2.7668,2.7662,2.7688,2.7714,2.7714,2.7749,2.767,2.7713,2.7736,2.7666,2.7719,2.771,2.771,2.7779,2.7809,2.7777,2.7924,2.7876,2.7886,2.7887,2.7917,2.7935,2.7951,2.774,2.7739,2.7738,0,0,2.7601,2.7637,2.7618,2.7694,2.7698,2.7668,2.7685,2.7655,2.7658,2.7659,2.7648,2.765,2.7674,2.7692,2.7715,2.7798,2.779,2.7837,2.7853,2.7865,2.7873,2.7907,2.7924,2.7735,2.7734,2.7734,0,0,2.7568,2.7548,2.7518,2.7602,2.7607,2.7592,2.7638,2.7599,2.7617,2.7607,2.756,2.7559,2.7624,2.7619,2.7572,2.7689,2.7625,2.7635,2.7689,2.7708,2.7723,2.772,2.7489,0,0,0,0,0,2.7466,2.755,2.7523,2.7532,2.7567,2.7608,2.7611,2.7575,2.7528,2.7564,2.7548,2.7502,2.7582,2.754,2.7549,2.76,2.7686,2.7694,2.7702,2.7791,2.7811,2.7828,0,0,0,0,0,0,2.7469,2.7481,2.752,2.751,2.7517,2.7604,2.7516,2.7508,2.7523,2.7513,2.7506,2.7501,2.747,2.7533,2.7541,2.759,2.7486,2.7689,2.7696,2.7703,2.7798,2.7815,2.7829,0,0,0,0,0,2.7471,2.7481,2.7546,2.7508,2.7515,2.7486,2.7513,2.7505,2.7516,2.7492,2.7486,2.7487,2.7473,2.7478,2.7537,2.7587,2.748,2.7483,2.7694,2.77,2.7705,2.7806,0,0,0,0,0,0,2.7473,2.7474,2.7547,2.7547,2.7475,2.7481,2.7481,2.7503,2.7493,2.7488,2.747,2.7463,2.7476,2.7479,2.7483,2.7588,2.7475,2.7478,2.748,2.7698,2.7703,2.7707,0,0,0,0,0,0,2.7468,2.7475,2.7547,2.7506,2.7502,2.7476,2.7476,2.7523,2.7494,2.7472,2.7465,2.7467,2.7469,2.748,2.7483,2.7558,2.7471,2.7474,2.7477,2.7478,2.7702,2.7705,0,0,0,0,0,0,2.747,2.7475,2.7506,2.7502,2.7498,2.75,2.7516,2.7554,2.746,2.7473,2.7451,2.7446,2.7472,2.7474,2.7484,2.7558,2.7558,2.7471,2.7473,2.7475,2.7476,0,0,0,0,0,0,0,2.7472,2.7445,2.7544,2.7499,2.7495,2.7551,2.7551,2.7551,2.7459,2.7456,2.7452,2.7448,2.7452,2.7456,2.746,2.7558,0,0,2.7471,2.7472,0,0,0,0,0,0,0,0,2.7442,2.7445,2.7544,2.7545,2.7545,2.7551,2.7551,2.7551,2.7459,2.7456,2.7453,2.745,2.7453,2.7456,2.7459,0,0,0,0,0,0,0,0,0,0,0,0,0,0,0,2.7544,2.7545,0,2.7551,2.7551,2.7551,2.7458,2.7456,2.7453,2.7451,2.7454,2.7457,2.7459,0,0,0,0,0,0,0,0,0,0,0,0,0,0,0,0,0,0,0,0,0,0,0,0,0,0,0,0,0,0,0,0,0,0,0,0,0,0,0,0,0,0,0,0,0,0,0,0,0,0,0,0,0,0,0,0,0,0,0,0,0,0,0,0,0,0,0,0,0]}]]]